EHI
9 10 12 15 17 16 14 13 13 14 11 9 9 8 5 2 1 1 2 2 2 2 1 1 3 4 3 1 1 2 3 3 3 2 1 0 0 0 0 0 0 0 0
9 8 8 10 12 13 12 11 12 14 12 10 8 6 4 1 0 0 1 1 1 1 1 1 2 3 2 1 0 1 2 2 2 1 0 0 0 0 0 0 0 0 0
10 8 5 5 6 8 8 8 10 12 13 10 7 5 3 2 1 0 1 1 1 0 0 0 1 1 1 0 1 1 1 1 1 0 0 0 0 0 0 0 0 0 0
9 7 4 3 4 6 6 6 8 9 10 8 7 6 4 3 1 1 1 1 0 0 0 0 0 0 0 0 1 1 0 0 0 0 0 0 0 0 0 0 0 0 0
6 5 4 3 4 5 6 6 7 7 7 7 7 6 5 3 1 1 2 1 0 0 0 0 0 0 0 0 0 0 0 0 0 0 0 0 0 0 0 0 0 0 0
4 3 3 3 4 4 5 5 6 6 6 6 5 5 3 1 1 1 2 1 0 0 0 0 0 0 0 0 0 0 0 0 0 0 0 0 0 0 0 0 0 0 0
3 3 3 3 3 3 4 4 4 4 3 3 3 2 1 0 0 1 1 0 0 0 0 0 0 0 0 0 0 0 0 0 0 0 0 0 0 0 0 0 0 0 0
3 3 3 3 3 2 2 2 2 2 1 1 1 0 0 0 0 0 0 0 0 0 0 0 0 0 0 0 0 0 0 0 0 0 0 0 0 0 0 0 0 0 0
2 2 3 3 2 1 0 1 1 1 0 0 0 0 0 0 0 0 0 0 0 0 0 0 0 0 0 0 0 0 0 0 0 0 0 0 0 0 0 0 0 0 0
1 1 1 2 1 0 0 0 0 0 0 0 0 0 0 0 0 0 0 0 0 0 0 0 0 0 0 0 0 0 0 0 0 0 0 0 0 0 0 0 0 0 0
0 0 0 0 0 0 0 0 0 0 0 0 0 0 0 0 0 0 0 0 0 0 0 0 0 0 0 0 0 0 0 0 0 0 0 0 0 0 0 0 0 0 0
0 0 0 0 0 0 0 0 0 0 0 0 0 0 0 0 0 0 0 0 0 0 0 0 0 0 0 0 0 0 0 0 0 0 0 0 0 0 0 0 0 0 0
0 0 0 0 0 0 0 0 0 0 0 0 0 0 0 0 0 0 0 0 0 0 0 0 0 0 0 0 0 0 0 0 0 0 0 0 0 0 0 0 0 0 0
0 0 0 0 0 0 0 0 0 0 0 0 0 0 0 0 0 0 0 0 0 0 0 0 0 0 0 0 0 0 0 0 0 0 0 0 0 0 0 0 0 0 0
0 0 0 0 0 0 0 0 0 0 0 0 0 0 0 0 0 0 0 0 0 0 0 0 0 0 0 0 0 0 0 0 0 0 0 0 0 0 0 0 0 0 0
0 0 0 0 0 0 0 0 0 0 0 0 0 0 0 0 0 0 0 0 0 0 0 0 0 0 0 0 0 0 0 0 0 0 0 0 0 0 0 0 0 0 0
0 0 0 0 0 0 0 0 0 0 0 0 0 0 0 0 0 0 0 0 0 0 0 0 0 0 0 0 0 0 0 0 0 0 0 0 0 0 0 0 0 0 0
0 0 0 0 0 0 0 0 0 0 0 0 0 0 0 0 0 0 0 0 0 0 0 0 0 0 0 0 0 0 0 0 0 0 0 0 0 0 0 0 0 0 0
0 0 0 0 0 0 0 0 0 0 0 0 0 0 0 0 0 0 0 0 0 0 0 0 0 0 0 0 0 0 0 0 0 0 0 0 0 0 0 0 0 0 0
0 0 0 0 0 0 0 0 0 0 0 0 0 0 0 0 0 0 0 0 0 0 0 0 0 0 0 0 0 0 0 0 0 0 0 0 0 0 0 0 0 0 0
0 0 0 0 0 0 0 0 0 0 0 0 0 0 0 0 0 0 0 0 0 0 0 0 0 0 0 0 0 0 0 0 0 0 0 0 0 0 0 0 0 0 0
0 0 0 0 0 0 0 0 0 0 0 0 0 0 0 0 0 0 0 0 0 0 0 0 0 0 0 0 0 0 0 0 0 0 0 0 0 0 0 0 0 0 0
0 0 0 0 0 0 0 0 0 0 0 0 0 0 0 0 0 0 0 0 0 0 0 0 0 0 0 0 0 0 0 0 0 0 0 0 0 0 0 0 0 0 0
0 0 0 0 0 0 0 0 0 0 0 0 0 0 0 0 0 0 0 0 0 0 0 0 0 0 0 0 0 0 0 0 0 0 0 0 0 0 0 0 0 0 0
0 0 0 0 0 0 0 0 0 0 0 0 0 0 0 0 0 0 0 0 0 0 0 0 0 0 0 0 0 0 0 0 0 0 0 0 0 0 0 0 0 0 0
0 0 0 0 0 0 0 0 0 0 0 0 0 0 0 0 0 0 0 0 0 0 0 0 0 0 0 0 0 0 0 0 0 0 0 0 0 0 0 0 0 0 0
Wind_Speed
5 6 6 6 6 6 5 4 4 3 2 1 1 1 1 1 1 1 2 1 0 1 2 2 2 3 3 4 4 3 5 4 4 4 3 2 3 4 2 3 4 5 5
5 6 7 7 7 6 6 4 4 3 3 2 1 1 1 1 1 2 2 2 2 1 1 2 2 3 3 3 4 4 3 3 4 4 4 3 2 2 2 2 3 5 5
4 5 7 7 7 7 6 5 4 4 3 2 2 2 1 1 1 2 2 2 2 2 1 1 1 1 2 3 4 5 5 5 3 2 4 5 4 2 2 2 3 4 4
5 5 6 6 7 6 6 6 5 5 5 4 3 2 1 1 1 1 1 2 3 3 2 2 1 1 1 2 2 3 3 5 5 2 1 2 4 5 3 1 2 4 4
5 5 5 5 6 6 6 6 6 7 6 5 4 3 2 2 2 3 3 3 4 4 4 3 2 2 1 1 0 1 2 3 4 4 3 2 2 3 4 4 3 3 3
5 5 6 6 6 7 7 7 7 8 7 6 6 5 4 4 4 4 4 4 3 4 6 5 4 3 3 3 1 0 1 2 3 3 3 3 3 3 3 4 5 4 3
5 5 6 7 7 8 8 8 7 7 7 7 7 7 6 5 5 4 4 4 4 4 5 5 4 3 3 3 3 2 2 2 3 3 2 2 2 3 3 5 5 4 3
5 5 5 6 6 7 7 7 7 6 7 7 7 6 6 5 5 6 5 5 4 4 5 5 5 5 4 4 4 3 3 3 4 4 4 3 2 2 3 5 6 5 3
5 5 5 5 6 6 7 6 6 7 7 7 7 7 7 7 6 6 6 5 4 4 6 5 5 6 6 6 5 5 5 5 5 5 5 4 3 3 3 4 5 6 5
5 5 5 5 5 5 6 7 7 7 6 7 6 6 7 7 7 7 7 7 6 6 6 7 7 7 7 7 7 6 6 8 6 5 6 6 4 4 3 4 3 3 5
5 4 4 4 5 5 6 6 7 7 7 7 6 7 7 7 7 7 7 6 7 7 7 7 7 8 8 7 8 7 8 9 7 6 7 7 5 5 4 4 4 3 4
6 5 5 4 5 6 6 6 6 7 6 6 7 7 7 7 8 7 7 7 7 7 7 7 8 8 8 8 8 9 9 9 8 7 7 7 6 7 5 5 5 4 4
7 6 5 5 5 5 5 6 6 6 6 6 7 8 7 7 8 7 7 8 8 8 8 8 9 8 8 8 8 9 9 9 8 7 8 7 7 7 5 6 6 5 5
7 6 5 4 4 5 5 5 5 5 6 6 7 8 7 7 7 7 7 7 7 8 8 8 8 8 8 8 8 8 9 9 8 8 8 7 7 7 6 6 6 6 7
7 6 5 4 4 4 4 4 5 5 5 6 7 6 6 6 6 7 7 7 7 7 7 8 8 8 7 7 7 7 8 8 9 9 8 8 10 10 7 6 6 6 6
8 7 6 5 4 4 4 4 4 4 4 5 5 5 5 6 6 6 7 7 7 7 8 8 8 8 6 9 10 8 7 8 8 8 8 8 10 11 12 11 9 7 6
9 8 6 5 4 4 3 3 3 3 4 4 4 5 5 6 6 6 7 7 7 7 7 7 8 8 8 10 11 10 7 8 7 7 7 7 8 9 8 10 11 10 8
9 7 6 5 4 4 3 3 3 4 4 4 5 5 5 6 6 6 7 6 5 6 5 6 7 7 7 10 10 11 8 8 7 7 6 7 7 7 7 7 8 7 6
8 7 6 5 5 4 3 4 4 4 4 4 4 4 5 6 6 6 5 4 5 5 5 5 6 7 7 9 9 9 6 7 7 6 6 6 6 8 8 7 6 6 5
8 7 7 6 5 4 4 5 4 4 4 3 4 4 5 5 5 5 4 3 4 4 5 6 6 6 6 8 9 7 5 5 5 5 5 7 7 7 7 5 5 5 3
9 8 7 6 4 4 5 5 4 4 3 4 5 5 5 5 4 4 3 4 4 5 5 6 6 6 6 7 9 7 4 4 3 3 3 3 6 6 6 4 3 1 1
9 8 7 6 4 5 6 5 4 3 3 4 5 5 4 4 4 5 4 4 5 5 5 5 5 5 5 7 7 8 7 4 3 2 1 2 4 5 5 3 3 3 2
8 7 8 7 4 4 5 5 3 3 5 5 5 5 5 4 4 4 4 4 4 3 3 3 3 3 3 4 7 7 7 6 3 1 2 3 4 5 4 5 5 3 2
8 7 8 7 5 4 4 4 4 4 5 6 5 4 4 4 4 3 3 3 2 2 2 2 2 2 2 2 3 3 3 4 4 3 4 5 7 5 4 4 4 3 2
6 7 7 6 5 4 4 4 4 5 6 5 4 4 4 4 4 3 3 2 1 2 2 2 2 2 1 1 1 1 2 2 2 2 2 3 3 4 3 3 3 3 3
7 7 6 6 5 5 4 3 4 5 5 4 3 2 2 2 2 3 3 6 4 3 3 3 3 1 1 1 1 2 2 2 1 2 2 2 2 2 2 3 3 2 2
Wind_Direction
37 31 24 30 40 39 39 34 30 18 29 54 59 68 64 48 71 80 65 76 139 178 208 211 192 198 207 206 188 170 160 156 142 124 116 76 69 78 84 100 108 107 106
36 31 30 32 35 35 32 33 27 22 23 17 19 70 64 44 50 55 53 56 60 105 162 159 198 193 193 195 191 171 164 165 168 150 138 141 112 72 71 90 110 109 107
54 30 26 25 23 25 24 25 21 31 29 29 46 62 68 48 36 36 29 47 72 60 57 112 176 176 173 192 195 185 177 175 178 166 153 157 171 138 83 83 104 114 111
62 43 32 25 21 18 19 24 27 32 25 33 52 55 69 69 38 36 38 37 50 50 46 47 71 142 159 177 194 188 195 174 172 163 126 123 141 146 138 100 95 109 108
66 50 38 29 25 23 24 21 30 36 26 27 37 49 56 62 53 53 53 45 40 43 45 48 47 43 45 59 135 190 187 177 171 159 143 112 95 105 135 146 138 98 80
69 50 36 31 28 26 28 27 35 36 29 31 33 37 46 60 62 54 45 38 37 39 38 43 38 39 46 50 42 56 146 149 146 133 134 143 146 147 136 139 140 119 81
79 57 40 32 29 27 27 27 36 39 33 36 39 39 44 53 61 55 49 46 39 36 32 40 36 39 44 49 54 54 62 104 118 120 119 113 122 133 129 128 126 110 91
81 65 50 38 33 31 30 30 34 38 36 38 39 41 45 52 53 53 54 50 42 36 35 43 44 47 52 55 60 63 65 82 92 94 101 97 93 111 126 132 135 122 96
91 75 57 44 39 32 28 30 41 42 41 41 44 47 46 51 53 52 52 51 43 44 41 47 54 53 53 54 60 65 64 70 74 80 84 84 79 89 93 115 132 135 138
97 81 64 50 43 38 34 36 43 47 45 47 51 57 52 51 52 54 52 49 46 46 47 47 51 56 56 58 63 66 67 71 64 67 73 71 72 79 87 106 101 107 127
113 96 75 57 50 46 44 44 44 47 48 50 53 57 53 52 54 55 51 50 49 48 49 50 53 57 57 57 63 63 66 71 67 66 73 70 68 78 79 85 90 91 107
119 107 91 71 57 51 47 47 47 49 48 53 58 57 56 56 56 53 49 51 53 50 51 53 56 57 58 59 65 67 63 66 65 62 68 67 73 71 72 82 87 89 92
121 107 90 75 67 61 55 52 49 51 50 55 61 59 55 55 54 52 50 51 54 53 51 55 57 56 54 58 62 68 67 66 64 62 66 65 74 73 73 81 88 89 91
127 116 99 83 75 70 63 57 51 53 60 60 61 59 54 53 54 53 52 51 53 54 52 54 54 54 55 57 63 68 69 67 65 63 64 64 70 75 78 81 86 95 95
135 127 116 102 92 79 67 63 61 60 64 66 64 60 56 57 58 56 53 52 51 54 53 55 52 49 53 56 67 70 73 72 69 62 58 61 68 69 72 84 88 96 99
143 135 128 121 110 96 84 74 67 65 73 75 72 65 65 64 62 60 58 58 54 50 52 51 52 50 51 56 66 75 72 70 71 66 57 58 56 61 66 76 81 91 107
145 141 138 131 122 113 102 88 76 70 73 72 72 74 73 71 67 69 66 61 54 54 53 49 53 52 47 58 67 74 76 69 65 63 60 60 53 56 65 67 66 65 75
142 138 134 128 118 109 99 90 80 77 75 68 69 76 81 79 74 70 68 63 58 56 54 48 49 52 46 61 72 77 73 69 62 60 64 66 53 54 69 73 66 58 52
134 133 132 127 118 114 112 97 85 83 80 74 73 83 90 89 84 77 70 64 66 60 54 51 51 53 41 56 75 80 77 71 59 53 55 63 61 54 68 74 70 56 37
126 128 124 116 114 113 111 105 96 87 81 80 83 87 90 90 89 86 79 70 72 70 67 59 50 52 44 48 70 80 82 75 62 48 43 50 57 56 64 72 72 57 22
127 126 122 119 121 120 111 105 100 92 90 94 90 85 85 87 90 85 79 85 82 75 68 63 49 45 40 45 59 71 80 85 73 55 32 23 34 48 62 76 75 59 32
126 127 123 119 116 119 115 110 104 96 93 93 87 81 77 81 90 87 81 81 86 80 68 62 50 36 29 39 53 64 72 82 81 57 9 352 18 42 59 69 67 71 74
128 126 126 119 113 121 124 120 113 103 97 86 80 77 73 68 77 89 93 85 81 86 79 74 64 38 28 28 42 51 55 56 67 36 15 31 49 63 58 53 56 63 64
129 128 126 124 122 121 117 121 115 106 97 90 79 75 78 72 64 67 83 98 102 104 104 99 88 56 30 17 14 23 31 34 40 34 37 50 56 57 50 44 42 43 50
128 130 131 131 130 122 113 115 116 110 102 96 88 79 80 88 79 67 59 90 109 180 154 152 142 122 75 322 328 20 11 4 7 26 38 37 35 35 28 26 29 30 38
129 128 129 130 131 130 126 122 124 120 114 103 97 94 93 89 89 90 65 48 56 78 141 157 157 173 202 231 358 4 6 10 82 80 58 42 36 33 19 10 7 14 18